Location: Newark
(43.6583°N, 1.6617°E)
Time: 18:15:48
(UTC+00:00)

Tiros 1 - Pass Details

Date: 26 August 2019
Orbit: 630 x 664 km, 48.4° (Epoch: 13 October)

Event Time Altitude Azimuth Distance (km) Brightness Sun altitude
Rises 20:20:43 0° 180° (S) 2,902 - -17.4°
Reaches altitude 10° 20:25:18 10° 138° (SE) 1,999 - -18.1°
Maximum altitude 20:25:56 10° 130° (SE) 1,983 - -18.2°
Drops below altitude 10° 20:26:34 10° 122° (ESE) 2,001 - -18.3°
Sets 20:31:09 0° 81° (E) 2,917 - -18.9°
